Wind_Speed
14 14 13 13 13 12 9 3 2 3 2 1 4 3 4 4 3 5 11 9 3 2 2 8 8 5 5 4 6 5 6 7 5 5 3 3 19 30 29 31 34 31 31 30 28 25 24 24 24 25 26 25 24 23 22 20 19 18 17 16 17 17 17 16 16 16 16 15 14 14 13 13 12 12 12 12 11 11 11 11 11 12 12 12 12 13 13 12 12 11 9 9 8 7 6 6 5
13 13 11 11 10 5 3 3 2 3 3 2 3 3 6 5 4 5 9 7 2 2 6 9 8 6 6 7 8 8 5 2 2 3 1 12 24 25 29 34 34 32 32 31 29 27 26 25 25 26 26 26 25 24 22 21 20 18 17 17 18 17 17 16 16 15 15 14 14 13 13 12 11 11 11 11 11 11 10 10 10 11 11 11 11 11 11 11 10 10 9 8 7 6 6 5 4
11 11 11 8 5 2 0 3 2 0 1 4 4 5 5 7 7 5 9 6 4 4 8 9 8 7 6 6 4 6 2 1 5 4 3 18 21 23 34 35 34 33 32 32 30 29 28 26 26 27 27 27 25 24 23 21 20 18 18 18 18 18 17 16 15 15 14 14 13 13 12 11 10 10 11 11 11 11 11 10 10 9 10 10 9 9 10 10 9 9 8 8 7 7 6 6 4
9 9 10 7 3 3 3 2 2 4 2 4 4 6 5 8 10 6 9 6 1 1 1 3 3 1 1 4 3 4 3 2 7 7 7 15 19 33 40 36 36 34 33 32 30 30 28 26 26 27 27 27 26 25 23 21 20 19 19 19 19 18 16 15 14 14 13 12 12 11 10 10 10 10 10 10 10 10 10 10 9 8 9 9 8 8 8 8 8 8 8 7 7 7 7 6 5
8 8 8 3 2 1 2 1 2 4 4 4 3 6 7 9 10 9 7 6 6 4 2 2 2 3 3 2 1 1 4 4 7 9 12 15 22 39 41 38 38 35 34 32 31 30 28 26 26 28 28 27 26 25 23 22 21 20 20 20 19 18 16 15 14 14 12 11 10 9 9 9 9 9 9 9 9 9 8 9 9 8 8 8 8 7 7 7 7 7 7 7 7 7 7 7 7
7 6 3 2 1 1 2 1 2 3 5 5 4 6 8 11 10 10 9 8 11 5 2 1 1 2 3 2 2 1 2 6 9 12 17 20 28 38 40 40 38 35 34 32 31 30 28 25 25 28 28 27 26 25 24 22 21 21 20 20 19 17 16 14 14 13 11 10 9 8 7 7 8 8 9 9 9 8 7 8 9 8 7 7 6 5 6 6 6 7 6 6 6 7 7 7 8
5 4 2 2 1 0 3 3 5 5 6 6 6 7 9 13 11 10 11 9 10 5 3 4 7 7 1 1 1 2 2 5 9 16 24 30 34 37 39 40 37 35 34 32 31 29 27 25 26 28 27 27 26 25 24 23 22 21 20 20 19 17 15 14 13 12 10 9 7 6 6 7 7 8 9 9 9 9 8 7 8 8 9 7 5 4 5 5 5 6 6 6 6 7 7 7 8
2 1 1 3 0 1 3 4 5 4 5 5 6 9 10 14 13 11 11 7 8 5 4 6 7 7 2 1 1 5 6 8 11 21 31 36 38 36 37 38 37 35 33 32 30 27 26 26 27 26 26 25 24 25 24 23 23 22 20 19 18 16 15 14 12 11 9 8 7 6 6 6 6 7 8 8 9 10 9 8 8 8 9 9 7 5 4 4 4 5 5 5 6 7 8 7 7
1 1 1 2 2 1 2 3 4 4 5 6 8 11 11 14 14 13 12 10 9 3 7 10 5 5 3 3 1 5 6 15 19 27 34 38 39 35 34 36 37 35 32 31 29 27 26 26 27 25 25 24 23 24 23 24 23 22 20 18 17 16 15 13 12 10 8 7 7 6 6 5 5 6 6 6 8 10 11 10 9 8 9 8 7 6 5 4 4 4 5 5 6 6 7 7 6
2 1 1 2 3 2 3 3 4 4 7 8 9 13 12 12 13 14 12 13 11 1 6 6 3 6 6 3 0 3 7 23 28 28 33 37 36 32 31 33 36 36 33 30 28 27 26 26 25 25 24 23 23 23 23 24 22 21 19 18 17 16 14 13 11 9 8 8 8 8 7 6 6 6 6 6 6 8 10 11 10 9 9 8 6 5 6 5 5 4 4 4 5 6 7 7 6
1 1 2 2 2 4 5 5 6 5 7 6 7 12 13 12 11 13 12 14 11 4 6 4 5 6 7 3 1 3 16 29 31 29 30 33 31 30 30 31 33 35 35 31 28 27 26 24 23 24 23 23 23 23 23 23 22 21 19 18 17 15 14 13 11 9 9 9 9 9 9 9 8 8 7 7 6 6 7 9 10 10 9 8 5 4 5 6 5 4 3 3 4 5 6 6 6
2 2 3 3 4 5 5 5 6 6 7 5 6 9 10 10 9 12 14 14 6 9 9 6 8 8 6 2 0 7 18 24 30 30 28 30 30 30 30 30 31 32 34 31 29 28 26 24 22 22 23 23 23 23 23 21 21 20 19 18 16 15 14 12 10 9 10 10 11 10 10 11 10 10 10 9 8 6 5 6 8 9 8 7 5 3 4 5 5 4 2 3 3 4 5 5 6
2 3 5 3 4 4 5 4 5 5 6 5 7 10 10 8 9 10 12 14 7 12 9 7 11 7 5 3 3 7 12 17 26 29 28 30 30 30 29 30 30 30 31 31 30 28 26 24 23 22 22 23 23 23 21 20 20 19 18 17 15 15 13 12 11 10 11 11 11 11 10 11 11 11 11 11 10 8 6 4 4 6 7 6 4 3 2 3 3 2 1 2 3 4 4 5 5
3 3 5 3 2 4 4 3 4 4 5 7 6 9 9 6 9 9 8 11 8 10 7 9 13 9 4 4 4 5 10 18 25 29 30 31 30 29 29 29 29 30 30 30 30 28 27 25 24 23 23 23 23 22 21 20 19 19 18 16 15 14 13 12 11 11 11 11 11 10 11 11 11 11 11 10 10 9 8 7 5 3 4 5 4 3 2 2 2 2 0 1 2 3 4 5 5
5 1 3 2 2 3 4 4 5 6 5 7 8 9 8 6 7 6 6 7 1 5 9 8 7 6 7 9 7 10 15 24 29 32 33 31 30 29 29 29 29 30 30 30 29 29 28 26 26 25 24 24 24 23 21 20 19 19 18 16 15 14 13 12 11 11 11 11 11 11 11 11 11 11 10 10 10 10 10 9 8 6 4 2 2 2 2 2 2 2 2 3 3 4 5 6 6
5 2 2 2 3 3 4 5 5 6 5 8 11 7 6 8 6 4 5 6 5 6 9 6 5 3 12 12 11 19 24 30 33 34 34 31 30 29 29 29 29 29 30 30 29 29 28 27 27 25 25 25 24 23 21 19 19 19 18 16 15 14 13 12 11 10 10 11 11 11 10 10 10 10 10 11 11 11 10 10 9 8 7 6 4 2 1 1 2 3 4 4 5 6 7 8 8
2 3 3 3 4 5 4 6 5 5 6 10 10 5 4 9 6 4 5 4 9 7 3 2 2 3 10 10 20 31 31 34 36 35 33 29 28 26 26 27 28 28 29 30 30 29 28 28 27 26 25 24 23 22 21 20 19 19 18 16 15 14 13 12 11 10 11 11 10 10 9 9 9 10 11 11 11 12 11 10 9 9 8 8 7 5 4 3 2 3 4 5 6 7 8 8 9
2 3 5 5 6 6 6 6 5 5 6 8 5 4 5 6 5 3 5 4 6 5 5 3 4 6 7 17 31 36 33 36 35 33 29 25 25 22 22 25 27 27 28 28 28 29 28 28 27 26 25 24 23 22 21 21 19 19 18 16 15 14 13 12 11 10 11 11 9 9 8 8 8 9 10 10 10 10 10 10 9 8 8 8 8 7 6 5 4 5 6 6 7 8 8 9 10
5 3 4 7 6 5 5 5 5 5 7 9 3 4 7 6 4 1 1 2 3 7 5 5 6 9 11 20 32 32 33 34 30 30 27 24 24 23 23 24 25 26 26 27 27 27 28 28 26 26 25 24 24 23 22 21 20 19 18 17 15 15 14 12 11 11 11 10 9 8 7 6 7 8 9 8 9 8 8 8 8 8 7 7 7 7 7 6 5 6 7 8 9 9 10 10 11
4 4 5 7 5 5 6 7 9 8 9 10 6 6 8 7 3 2 2 3 3 5 4 4 5 8 12 17 25 28 30 28 27 28 25 25 25 24 24 22 22 23 24 26 26 25 26 27 25 25 24 24 24 23 22 21 21 20 19 17 16 16 15 13 11 11 11 9 8 7 6 6 5 6 6 6 7 7 6 6 7 8 7 7 8 8 8 7 7 7 7 9 10 11 11 11 12
3 5 6 5 5 6 8 9 10 10 10 9 6 7 9 8 3 2 4 3 1 5 7 8 11 13 15 16 20 24 25 24 25 26 24 24 22 21 22 23 23 23 25 26 26 25 25 25 25 24 23 23 23 23 22 21 20 20 18 17 16 16 14 13 12 11 11 9 8 6 5 4 3 3 3 3 3 5 4 4 6 7 7 8 8 8 8 9 10 9 9 10 12 12 12 13 14
3 6 5 4 5 6 8 9 10 11 11 9 5 6 7 7 4 3 5 4 4 6 6 10 15 17 19 19 17 19 19 20 22 23 24 23 23 23 24 26 27 26 28 29 29 28 27 25 24 23 21 21 22 22 21 20 20 19 18 17 16 15 14 13 12 11 10 8 7 5 4 3 2 2 2 1 1 3 4 4 5 6 7 8 8 8 9 10 11 11 12 12 13 14 13 14 15
5 6 4 6 6 6 6 7 10 10 9 7 3 5 4 4 5 2 3 4 7 7 6 14 17 19 21 20 18 18 18 19 20 22 25 25 25 25 26 27 28 28 28 29 30 29 28 26 24 22 21 20 20 20 20 20 20 19 17 16 15 15 14 13 13 11 9 8 6 4 3 3 3 3 2 2 2 3 4 4 5 5 7 7 7 8 9 10 11 12 13 13 14 14 14 15 16
7 7 6 7 8 8 8 9 10 8 8 8 4 5 6 4 5 3 3 5 7 6 6 14 14 16 20 19 17 18 18 18 17 18 20 19 19 21 24 26 28 28 26 26 28 29 28 27 26 24 22 21 20 21 21 20 20 18 17 15 14 14 14 13 12 11 8 6 5 6 5 4 5 3 2 3 3 3 4 4 4 5 6 7 7 8 9 9 10 11 11 12 12 13 14 15 16
9 9 7 7 7 8 10 12 13 10 8 8 7 8 9 8 3 2 6 8 6 2 8 12 13 15 15 16 16 16 16 14 13 15 15 15 17 18 20 24 26 26 25 25 27 28 29 28 27 26 23 22 22 23 23 22 20 18 17 15 14 14 14 13 12 11 9 8 8 9 8 7 7 4 3 3 2 2 3 3 4 4 6 7 6 6 7 8 9 10 11 11 11 12 13 14 15
7 8 8 8 9 8 9 12 14 12 7 6 8 10 11 9 4 2 8 8 3 7 12 12 14 14 13 13 14 13 11 9 10 14 16 17 18 19 19 21 22 23 25 27 26 27 28 28 27 25 23 22 22 23 24 23 20 19 18 16 15 15 14 13 13 11 10 11 11 9 9 8 6 4 3 2 1 2 3 3 4 5 6 6 6 6 7 8 8 9 9 9 10 11 12 13 14
5 7 8 10 11 10 9 11 12 8 6 7 8 11 11 7 5 4 7 7 1 10 12 13 14 13 13 10 8 9 9 12 18 20 20 19 16 15 17 20 21 20 22 22 23 25 28 28 25 23 22 21 21 24 25 24 21 20 18 16 16 15 14 14 13 12 12 13 12 9 9 8 6 4 4 2 1 3 4 4 4 4 4 4 5 6 7 8 8 8 9 9 10 11 12 12 13
6 7 7 10 11 11 11 12 11 6 5 8 8 11 9 5 5 6 6 6 3 11 12 12 12 10 11 12 13 12 11 17 25 23 18 15 9 8 14 21 23 22 22 22 21 25 29 29 26 23 22 21 22 24 25 24 21 20 18 17 16 14 13 14 14 14 13 11 10 10 9 8 6 4 3 2 2 3 4 4 4 3 3 3 4 5 7 8 8 8 8 8 10 11 12 12 12
7 8 7 9 8 10 13 12 11 7 5 7 7 7 7 3 5 7 7 5 3 11 11 11 11 11 13 14 13 10 10 17 21 20 18 13 12 12 16 20 24 24 27 31 29 27 31 30 28 25 22 21 23 25 25 24 22 20 19 18 17 15 15 16 16 16 13 10 10 10 8 8 7 4 2 1 3 3 4 4 3 3 3 4 5 6 6 7 7 7 8 9 11 12 12 12 12
6 6 5 6 5 7 10 10 10 8 5 6 6 3 6 5 7 7 5 5 5 9 10 11 12 11 11 12 11 9 10 14 17 25 29 26 22 20 20 20 23 27 30 36 36 34 31 27 27 26 23 23 24 25 24 23 23 21 19 19 19 18 18 18 16 14 11 10 10 9 9 8 7 5 3 2 2 3 4 5 4 3 4 6 6 6 6 6 8 9 10 11 12 13 13 13 13
4 3 3 4 4 6 7 8 9 8 6 7 7 4 6 6 8 9 7 5 6 9 11 12 13 10 10 10 9 7 7 8 16 25 28 28 27 25 24 22 25 30 31 34 36 34 29 24 24 24 24 26 26 24 22 21 22 21 20 20 21 21 18 16 14 12 11 11 11 10 10 9 7 6 4 2 3 3 4 5 5 5 6 6 7 7 7 8 9 10 11 12 13 13 13 13 13
2 3 3 3 4 5 6 8 10 10 8 7 8 5 4 6 9 9 6 1 7 11 11 11 14 13 11 9 8 8 7 10 18 24 26 28 28 27 26 26 30 33 33 34 33 30 29 26 24 24 25 28 27 24 21 20 21 21 20 19 18 17 15 14 13 13 13 12 11 11 10 9 7 6 6 5 5 5 5 7 7 6 6 6 7 7 8 10 10 11 11 13 14 14 14 14 14
2 4 4 3 5 4 4 6 8 12 10 6 8 6 3 4 8 6 1 6 11 12 11 12 13 12 11 8 8 9 8 9 12 18 24 27 29 30 29 29 32 35 34 35 35 33 33 30 26 26 27 27 26 24 22 21 20 19 18 17 16 15 14 14 13 14 14 12 11 11 10 8 6 6 6 7 8 8 8 8 8 7 6 6 7 7 9 10 11 12 12 14 15 15 15 16 16
3 2 4 4 5 5 4 5 5 8 9 7 6 5 4 3 2 2 3 10 14 13 12 12 11 10 9 8 8 9 9 9 8 14 22 25 28 30 30 31 33 35 34 35 38 38 36 31 28 27 26 26 25 24 22 21 20 19 18 17 17 16 15 14 14 14 13 11 11 11 9 6 5 7 8 9 9 9 8 7 7 7 6 7 8 8 9 10 12 13 14 14 14 15 16 18 18
4 3 4 4 4 6 6 5 4 5 6 8 5 5 7 2 4 4 3 10 15 14 12 11 10 10 8 8 9 9 9 9 9 16 24 26 28 29 29 32 35 36 36 37 39 38 35 31 28 27 26 26 25 23 22 22 21 20 19 18 17 16 15 15 14 14 12 11 10 8 7 6 8 9 10 9 8 7 7 6 6 7 7 8 8 8 10 12 13 14 15 15 15 16 17 18 18
7 6 4 5 5 5 5 4 5 6 5 7 6 6 7 4 6 5 4 8 13 13 11 10 9 9 8 8 9 9 9 8 10 19 25 26 27 28 29 31 34 36 38 39 37 33 32 30 29 28 27 28 27 25 24 24 23 22 21 19 18 17 16 15 14 12 11 10 8 8 9 10 11 11 10 8 7 6 6 6 7 8 8 8 9 10 12 13 14 15 16 17 17 17 17 19 19
7 6 5 6 5 4 5 4 6 6 5 6 8 9 9 6 7 7 7 9 11 12 11 10 10 10 9 10 10 9 8 7 10 16 21 24 26 24 25 29 31 33 36 38 35 34 34 32 32 32 31 30 29 28 27 27 26 24 22 20 19 17 16 15 13 11 9 10 11 12 13 13 13 11 9 8 7 7 7 7 8 9 9 9 10 11 12 13 15 15 15 16 17 19 19 21 21
8 5 5 6 5 6 6 7 8 7 5 6 7 9 10 8 8 8 10 12 12 13 13 12 11 10 9 11 11 9 8 7 8 10 14 19 21 22 24 27 29 30 31 31 33 36 36 34 34 34 32 30 29 28 28 28 27 25 22 20 19 18 16 15 13 12 13 14 15 15 15 14 13 11 9 8 8 8 8 8 9 9 9 10 10 11 12 13 15 15 16 16 16 17 17 20 21
8 6 5 4 4 5 7 9 9 6 4 5 7 8 9 7 9 9 9 10 10 11 13 15 15 13 11 12 11 10 9 9 9 8 10 14 19 24 27 27 28 28 26 23 25 31 33 33 34 34 32 30 29 28 27 27 26 24 21 19 19 18 16 14 14 16 17 17 17 16 14 12 11 10 9 8 8 9 9 9 10 10 9 9 10 11 13 14 15 14 15 16 15 16 15 18 20
6 6 5 5 4 3 5 6 6 5 5 5 6 6 4 4 7 5 3 5 7 6 6 9 12 14 14 14 13 12 12 12 12 9 9 11 15 20 24 26 25 25 24 22 23 26 29 30 32 32 31 29 29 27 26 26 23 21 19 18 18 16 15 16 17 18 18 18 16 14 11 9 8 9 9 9 9 10 10 10 9 9 9 9 10 12 14 15 15 15 14 14 14 15 15 16 18
8 7 6 6 5 7 8 2 2 3 6 8 5 2 1 4 8 5 2 4 6 6 6 6 5 7 9 10 9 10 12 13 14 12 10 10 13 18 23 25 24 23 23 23 25 26 26 27 29 30 30 28 28 27 26 25 23 21 20 19 17 16 18 20 20 19 17 17 14 11 9 6 7 8 9 10 11 10 10 9 8 8 9 10 11 12 14 15 15 15 14 14 14 14 14 15 16
8 8 8 9 7 10 9 1 5 3 5 8 7 4 4 5 9 7 4 5 6 5 7 8 6 6 7 8 7 7 9 10 12 14 13 13 15 19 22 23 23 22 22 23 25 26 27 27 27 28 28 28 27 26 25 25 24 24 24 23 21 21 21 20 20 20 17 15 12 10 9 7 7 8 9 10 10 10 9 8 7 7 9 11 11 12 13 14 15 15 14 14 15 13 12 15 16
7 6 9 11 10 10 8 2 4 2 4 5 7 8 4 3 5 5 5 6 7 5 5 7 7 7 8 8 7 8 10 10 10 11 11 13 17 18 19 22 23 23 23 24 24 26 27 27 26 27 27 27 27 26 25 24 24 25 26 25 25 26 23 19 19 19 16 14 12 11 11 10 10 11 11 11 9 9 8 7 7 8 10 11 11 12 14 14 15 15 14 14 14 13 13 16 17
6 5 7 9 10 11 7 1 2 4 3 5 6 6 3 2 5 4 5 6 6 5 6 7 7 7 8 7 7 9 10 11 11 11 11 13 17 19 20 23 24 24 24 25 24 25 26 26 26 26 27 27 27 26 24 24 25 26 26 25 25 25 24 21 19 18 16 14 13 14 14 14 12 12 12 10 8 7 7 7 7 8 10 11 12 14 15 15 15 14 14 14 15 15 17 18 18
7 5 6 7 8 7 4 4 5 4 3 6 5 3 4 1 2 4 6 6 6 8 9 9 8 8 9 8 8 9 10 11 11 13 13 13 16 19 22 23 24 24 25 25 25 25 25 25 26 26 26 26 26 25 24 25 26 27 26 26 25 23 23 23 20 18 16 15 16 17 16 15 13 12 11 8 7 6 6 7 7 9 11 12 13 15 15 15 15 14 15 15 17 18 19 18 19
6 6 6 6 5 3 3 5 5 3 3 6 7 4 4 0 2 6 5 4 7 10 9 9 8 8 8 8 9 10 10 10 11 13 13 14 17 18 20 21 22 22 24 25 25 24 24 25 25 25 25 25 25 25 25 25 26 26 26 27 26 24 24 24 21 18 18 17 18 18 17 16 14 12 10 8 7 7 7 7 8 10 13 14 15 15 15 15 14 14 14 16 17 19 20 20 20
6 6 6 6 4 1 2 4 2 3 4 6 8 6 5 3 4 6 6 9 13 11 8 9 9 9 9 9 9 10 11 10 10 11 11 15 18 19 19 21 21 22 23 25 24 24 25 25 24 23 23 24 24 24 24 24 25 25 26 27 27 26 26 24 22 20 20 19 19 19 19 17 14 13 10 9 8 7 6 7 9 12 13 14 15 14 13 13 14 14 15 15 17 19 20 20 20
5 6 6 3 4 1 1 3 1 4 5 6 8 6 5 4 4 7 12 13 14 15 12 14 15 13 11 11 11 10 10 10 10 10 10 14 17 18 20 22 23 24 25 25 25 25 25 25 24 23 22 23 23 23 23 24 24 25 26 26 27 28 26 24 23 22 21 21 21 21 19 17 15 13 10 9 8 6 5 8 12 13 13 13 12 12 12 12 13 15 16 16 18 20 20 21 21
6 5 6 4 2 1 3 4 2 4 5 6 6 5 4 4 6 13 18 14 12 17 16 17 18 16 13 12 12 10 9 10 10 9 10 12 13 16 20 22 24 26 27 27 25 25 26 25 24 24 22 22 22 22 23 24 24 24 25 26 27 27 25 23 22 22 22 22 22 20 19 17 15 13 11 9 7 5 7 12 15 15 13 11 10 11 12 12 14 16 18 19 19 20 20 22 22
8 5 6 6 4 3 3 4 2 2 4 6 4 6 4 4 4 12 20 19 16 15 13 16 19 18 16 13 12 11 9 10 9 8 11 11 12 17 20 22 23 25 27 27 24 24 24 24 24 24 22 22 22 22 23 23 22 22 24 26 26 25 24 21 20 22 23 22 20 19 18 16 14 13 11 9 10 12 14 16 15 14 13 11 11 12 13 14 16 18 20 20 20 20 21 23 24
8 5 6 5 5 5 3 3 4 3 4 4 2 3 4 4 3 10 18 16 10 11 10 12 13 12 12 10 9 10 10 9 8 8 9 10 14 20 21 21 22 24 27 26 24 23 23 23 24 23 23 22 22 22 22 21 21 22 24 25 25 24 22 20 20 22 23 21 20 18 17 15 14 12 9 12 16 18 17 15 13 13 12 11 11 12 15 17 17 18 20 21 21 20 21 24 25
6 4 5 5 5 5 2 3 6 4 3 3 1 2 4 5 2 2 6 8 9 12 12 11 10 8 9 8 8 10 10 9 8 7 8 9 14 20 21 21 22 23 26 25 24 24 23 23 24 24 24 22 22 22 22 22 23 24 24 25 25 24 23 23 23 23 22 21 19 18 17 14 11 9 11 17 19 17 15 13 12 13 12 11 12 13 16 18 17 18 20 21 21 20 22 24 24
5 4 5 6 6 6 3 3 2 5 4 3 1 2 5 1 3 7 9 13 11 13 13 13 13 11 10 10 9 10 9 10 9 8 9 9 13 17 18 21 22 22 25 24 24 25 24 24 25 25 24 24 24 24 24 25 25 25 24 25 25 25 24 24 23 23 23 20 18 17 15 13 12 13 17 19 17 15 14 13 12 13 13 13 14 16 17 17 17 19 21 22 21 19 21 23 23
5 5 6 4 4 3 4 3 1 4 4 3 1 4 4 0 0 4 7 12 10 12 14 12 12 12 12 11 10 10 9 9 10 10 9 9 12 15 17 20 22 23 25 24 23 25 26 25 26 27 26 26 26 26 26 26 26 27 26 25 25 24 24 23 23 23 21 20 19 17 14 15 18 19 19 18 15 14 13 11 12 14 15 16 17 17 17 16 17 19 21 23 21 19 22 24 23
5 5 6 5 4 2 1 3 2 3 3 3 2 3 3 2 4 3 7 11 12 12 13 13 14 14 13 11 11 10 9 9 9 10 9 9 12 16 18 20 22 24 25 24 23 25 27 26 27 27 27 27 28 28 28 28 27 27 26 24 24 23 23 22 22 21 20 20 18 15 16 20 20 18 17 16 14 13 12 11 13 14 16 17 17 17 16 16 17 19 21 22 22 21 23 25 25
3 5 5 4 4 4 2 3 4 4 4 3 2 2 3 4 7 10 12 12 14 15 14 15 17 17 14 12 12 11 10 10 10 10 10 10 13 19 21 21 22 24 24 24 25 27 28 27 27 28 27 28 29 29 28 27 26 26 24 23 22 21 22 21 20 20 18 17 14 15 20 21 18 16 14 12 13 14 14 14 14 14 14 15 16 16 16 16 18 20 21 22 22 23 24 26 26
4 5 5 4 3 2 2 2 3 4 4 4 2 2 5 5 5 12 15 14 16 18 17 15 15 15 14 12 12 11 11 11 10 10 11 11 14 18 20 20 21 24 24 24 26 28 28 27 27 29 30 29 29 28 28 27 25 24 24 22 21 21 20 19 19 18 15 14 16 20 22 18 15 13 10 11 17 18 17 18 16 14 13 13 14 15 16 16 19 21 21 21 22 23 24 24 25
6 5 4 6 5 3 3 2 2 2 4 4 5 3 6 5 4 10 14 15 16 17 17 15 14 16 14 12 12 13 12 12 11 12 11 10 12 16 20 21 22 24 23 24 27 29 28 28 29 31 31 30 29 28 27 26 25 24 23 22 21 20 19 19 18 15 15 18 22 22 18 13 11 10 11 18 22 20 19 19 16 15 17 16 16 16 17 17 19 21 21 20 20 22 22 22 23
Wind_Direction
320 321 328 325 318 323 328 54 39 322 84 276 266 297 271 238 278 306 305 309 11 28 103 132 138 139 125 128 157 119 112 155 172 150 194 204 151 159 167 166 163 161 161 160 159 160 163 159 158 158 154 154 154 155 152 148 145 143 141 136 132 130 129 127 124 119 118 119 121 125 125 124 119 116 113 109 107 108 107 105 108 108 108 105 103 105 103 100 97 94 91 87 83 79 77 79 79
323 322 325 321 320 331 300 76 68 317 35 307 274 259 271 290 300 293 289 314 36 143 110 119 116 102 91 90 112 89 65 13 83 130 94 139 142 158 167 166 164 161 160 159 160 160 162 161 159 159 155 154 155 156 154 150 147 146 143 138 135 133 131 129 125 122 120 120 123 126 125 124 121 123 121 116 113 113 112 111 113 115 114 108 103 107 106 100 96 93 90 87 83 81 79 79 78
327 324 332 334 336 47 25 43 98 186 17 270 272 255 278 294 282 283 283 319 56 119 108 124 116 106 102 98 117 105 130 346 113 107 106 145 145 159 165 165 165 162 161 160 161 162 162 162 160 159 156 154 155 157 155 152 150 148 145 140 137 135 133 131 128 125 123 121 126 129 128 127 130 136 131 125 122 119 120 122 122 121 119 115 109 110 111 104 98 94 89 87 85 84 81 79 78
324 319 335 1 20 33 62 62 161 147 205 248 266 264 270 272 275 283 281 305 95 164 72 140 105 47 77 138 155 102 152 161 145 134 141 173 167 160 161 161 162 161 160 162 162 162 161 161 160 158 156 155 155 157 156 153 151 149 146 142 139 136 135 133 130 127 124 125 129 130 128 129 137 143 139 135 133 132 134 136 134 129 123 122 119 114 116 111 99 94 89 87 86 82 77 76 79
311 311 326 30 90 6 104 132 155 142 198 219 239 265 264 264 278 281 285 306 291 290 299 299 353 343 24 111 162 134 154 119 159 156 147 180 169 156 157 158 160 159 160 161 161 162 160 160 160 158 156 155 155 157 156 154 152 149 146 143 141 137 135 133 131 129 127 128 129 128 127 133 144 150 150 147 147 147 145 143 140 134 127 125 125 121 120 116 104 95 89 85 85 80 73 72 84
305 330 351 91 134 209 129 182 201 196 214 194 225 263 265 270 277 281 291 299 293 284 171 131 100 82 38 1 352 210 166 118 159 169 154 161 162 156 155 157 158 158 159 160 162 161 158 159 159 157 156 154 155 157 157 155 152 149 146 145 141 137 135 135 134 130 127 127 128 132 138 147 156 163 166 163 163 162 157 152 145 141 128 114 120 129 128 123 111 97 87 83 85 81 70 71 92
326 355 47 80 340 34 125 193 206 228 232 192 225 254 261 274 273 279 290 294 291 268 141 128 132 106 31 300 19 344 33 118 148 162 158 155 158 156 154 156 156 156 158 160 162 159 156 159 158 157 156 155 156 158 157 155 152 149 147 145 140 138 137 137 134 129 126 126 132 140 150 160 170 178 182 183 179 175 172 166 159 151 135 129 149 144 134 131 118 101 86 81 85 80 68 73 100
356 348 83 99 64 11 133 198 215 223 239 212 235 252 255 269 273 276 275 274 279 270 111 151 148 109 272 349 72 324 52 122 146 153 155 151 154 154 153 154 152 153 157 159 158 154 154 159 158 156 154 154 155 157 157 153 151 150 147 143 140 140 140 139 133 129 128 129 134 138 147 156 165 174 179 187 188 187 184 179 174 165 152 158 178 168 145 141 129 107 87 79 83 79 66 73 105
84 162 49 106 162 230 172 210 234 233 255 242 245 255 256 263 270 271 266 265 269 257 147 178 170 128 188 56 111 309 68 130 143 148 151 150 152 152 153 154 152 152 154 156 153 151 154 158 157 153 152 152 154 154 154 152 151 150 145 143 142 142 141 139 133 130 130 130 128 124 126 128 133 141 149 161 176 188 190 187 182 179 174 174 185 186 175 158 146 120 92 81 80 79 68 68 100
73 188 132 134 147 195 236 242 238 239 248 237 243 253 254 257 263 265 265 265 263 220 156 171 80 128 142 97 121 313 120 135 138 143 149 149 149 151 152 153 154 153 152 153 150 151 153 156 154 151 150 151 153 152 152 152 151 148 146 145 145 144 141 137 133 131 132 127 119 111 104 100 100 103 113 127 151 178 188 192 191 191 190 192 200 190 179 166 157 137 103 85 76 75 68 62 81
60 265 147 161 163 195 218 228 233 246 252 245 251 252 254 253 258 268 265 262 259 141 151 127 93 132 115 101 350 110 136 137 139 144 148 147 147 150 150 150 153 153 152 151 150 150 150 153 153 151 152 152 153 152 152 152 151 149 148 149 147 145 141 138 135 132 130 121 111 104 95 91 89 84 81 90 115 148 175 190 195 198 199 201 204 178 172 171 166 153 117 87 70 65 63 56 61
131 221 123 162 190 200 204 213 232 248 263 268 257 253 256 252 252 261 261 266 249 143 173 166 149 146 104 111 53 123 137 139 142 145 147 146 146 149 149 149 150 150 151 150 149 148 150 153 153 154 154 153 154 153 152 151 152 152 150 150 148 146 142 139 135 130 124 115 109 104 97 91 86 80 74 70 80 102 137 172 191 201 205 203 195 176 178 178 174 165 127 77 54 46 48 44 44
170 185 125 174 201 185 195 206 233 250 265 253 244 255 256 258 256 246 257 266 202 159 198 176 152 137 104 129 115 136 145 144 142 143 145 143 145 148 148 148 148 149 148 149 148 148 151 152 154 156 156 154 154 153 152 152 153 153 152 151 149 146 143 140 133 127 120 114 112 105 97 91 85 82 77 71 71 75 89 119 164 193 205 207 203 194 181 182 189 176 117 50 33 24 25 24 23
186 185 137 197 228 173 188 201 232 235 256 252 242 257 257 260 258 241 234 248 210 170 180 151 142 114 101 128 125 171 157 146 141 141 141 140 144 144 144 145 147 149 148 149 149 149 151 152 156 157 158 157 154 154 154 155 154 154 152 151 150 148 145 140 133 127 123 119 112 103 97 88 83 81 76 74 76 75 76 80 89 135 188 207 214 216 200 194 210 220 246 335 348 352 354 356 356
182 204 137 190 250 197 209 201 216 220 244 256 245 251 255 261 258 254 203 203 243 145 131 134 155 107 151 169 167 184 157 144 140 139 139 138 140 139 141 142 144 148 149 151 150 151 152 154 158 158 161 158 155 156 156 156 157 156 154 154 154 150 146 142 137 131 126 120 109 104 102 91 84 80 72 70 73 73 74 74 69 73 86 118 177 213 218 218 232 249 270 299 314 323 327 329 327
175 157 161 209 218 215 222 202 207 222 245 246 246 258 272 281 264 253 227 160 100 143 133 152 224 138 169 183 165 162 149 141 140 138 136 133 134 134 137 140 144 147 150 153 152 153 154 157 160 160 161 159 158 157 156 157 159 159 157 158 157 153 149 147 143 136 128 121 113 110 107 98 88 82 76 70 67 64 66 69 67 67 65 67 69 64 70 228 256 271 285 299 305 311 314 315 315
159 162 210 227 209 211 211 201 198 206 242 248 258 284 261 282 272 257 305 82 116 153 133 145 242 122 167 164 145 148 143 141 140 136 133 131 131 132 137 141 145 148 152 154 154 154 157 159 160 161 161 159 159 157 158 159 160 162 161 162 160 156 153 153 150 141 134 128 123 116 111 105 89 83 80 72 65 59 57 60 63 64 64 62 56 50 41 21 349 325 319 319 320 319 319 320 321
184 176 202 218 211 206 195 197 205 198 239 252 265 294 246 264 267 270 344 34 98 91 29 26 30 44 103 128 138 142 139 142 141 137 136 136 139 140 145 149 150 151 152 152 154 156 158 160 160 161 161 160 161 160 161 161 162 165 165 164 163 161 159 160 159 149 141 139 136 124 117 110 90 81 79 73 61 51 48 50 53 55 57 55 51 49 39 24 14 5 356 350 342 336 332 333 333
192 175 193 221 212 203 201 214 238 220 248 269 294 312 272 245 219 190 314 269 91 80 39 35 61 66 89 124 137 137 139 144 143 141 142 147 152 154 155 156 153 151 150 151 154 158 159 160 162 162 161 162 164 163 163 164 166 168 169 168 166 166 168 167 163 154 148 149 148 137 131 121 95 79 73 67 53 39 33 36 38 37 35 34 36 35 29 19 9 3 1 356 349 343 337 338 339
199 187 212 231 209 213 225 228 248 247 256 276 298 310 285 251 206 112 197 223 122 133 140 98 116 124 123 135 139 137 141 146 146 146 149 157 161 159 155 152 149 146 148 149 152 158 160 161 163 163 164 166 166 165 166 168 169 171 173 170 169 172 174 172 165 158 155 157 155 147 143 136 114 87 69 58 40 25 18 21 23 21 17 14 14 16 14 8 1 355 357 356 351 344 337 340 342
207 201 215 224 190 219 232 226 247 260 261 270 296 310 294 277 258 140 188 214 231 203 192 167 159 146 139 145 145 143 145 148 149 153 158 162 159 153 149 146 145 145 147 148 151 159 163 163 165 166 167 169 169 168 169 170 171 174 175 173 173 176 177 172 166 163 160 163 163 157 154 148 135 111 89 73 26 360 355 7 15 13 11 7 3 5 3 357 353 349 351 354 353 347 340 341 342
245 228 218 217 191 215 234 231 242 255 265 273 302 298 283 288 280 177 170 205 238 226 197 158 151 148 149 152 150 148 149 151 156 162 163 161 157 153 149 147 145 146 150 151 155 161 165 166 167 169 171 172 173 172 171 173 174 177 178 176 178 180 180 173 170 169 164 164 163 166 173 177 194 185 161 151 291 318 334 0 13 7 5 4 359 357 356 354 350 347 347 348 349 346 341 339 339
240 254 230 226 217 221 236 237 239 242 258 267 273 268 272 320 294 229 156 198 237 244 175 144 151 154 149 149 152 156 157 161 167 168 164 160 158 154 149 147 146 149 153 154 157 162 165 166 169 172 175 177 179 177 177 177 178 181 182 181 182 183 181 178 176 172 166 163 163 178 183 186 192 181 181 213 266 303 331 359 13 1 354 358 358 354 354 355 351 347 344 344 345 343 340 338 336
226 250 246 238 234 233 241 244 244 233 243 254 249 271 277 289 288 305 309 257 266 273 157 138 145 143 141 149 157 162 165 166 163 158 154 148 145 145 144 145 146 149 150 151 155 159 163 167 171 175 179 183 184 184 185 183 181 183 185 186 185 182 182 183 180 172 171 179 178 176 183 200 191 177 200 223 255 311 329 341 353 348 354 360 359 353 354 357 352 345 339 339 341 340 341 339 338
230 237 246 248 243 237 239 244 248 240 239 253 253 261 258 242 239 313 291 278 302 9 114 121 126 130 140 151 157 164 167 158 137 127 121 112 117 122 130 141 146 147 146 150 156 160 164 167 170 175 181 186 188 189 189 186 183 181 184 186 182 181 184 182 180 181 186 190 179 176 196 209 193 194 226 226 245 322 331 338 355 7 15 9 357 352 356 359 347 338 334 336 341 342 343 342 340
227 225 238 244 248 245 236 239 243 243 241 241 247 255 251 233 203 272 271 265 300 98 116 124 129 134 145 151 159 161 152 131 99 86 80 84 98 96 105 130 140 143 147 153 159 163 166 166 169 176 181 186 188 187 187 185 181 179 180 179 177 181 184 181 183 191 195 192 193 201 208 204 195 215 230 229 274 357 357 2 18 28 25 6 350 352 358 356 346 342 344 348 351 349 345 342 339
225 217 233 237 245 250 239 241 239 233 236 220 231 250 245 219 197 247 273 268 128 116 127 135 137 142 143 136 126 102 74 63 58 54 50 51 61 74 97 118 125 132 139 148 160 167 169 168 169 178 183 185 185 183 182 182 179 178 179 177 180 184 185 188 192 194 195 197 206 210 199 196 207 221 215 214 61 44 22 19 24 25 19 0 350 355 1 360 0 2 2 1 356 348 340 336 333
247 232 245 245 246 252 244 247 242 219 228 213 212 247 244 194 195 214 234 271 83 122 138 137 133 125 110 92 82 75 63 68 65 61 54 46 52 88 111 123 129 132 133 143 160 171 174 171 169 177 183 185 185 183 181 181 182 182 184 184 187 193 197 203 202 196 195 199 200 196 195 205 210 205 206 197 125 78 40 25 22 27 32 14 359 0 4 3 10 11 6 2 353 344 339 337 336
239 229 242 256 254 253 244 243 242 223 226 204 184 249 259 205 216 214 206 238 97 126 141 126 113 96 90 88 91 97 106 106 99 105 117 129 149 145 133 138 143 141 142 151 162 175 179 175 170 173 181 185 187 187 185 185 187 191 197 198 196 196 197 197 194 193 198 200 199 202 213 217 202 184 166 141 135 102 60 37 31 51 48 21 8 6 5 6 17 19 12 1 355 355 357 357 356
234 218 207 251 259 257 246 236 240 235 220 180 156 239 261 252 253 251 227 203 125 122 131 116 104 96 104 110 114 129 132 130 133 136 143 154 158 153 149 150 151 149 150 157 166 176 180 175 171 173 180 187 188 189 192 196 198 201 201 197 190 182 178 182 184 193 205 208 212 220 219 206 184 158 121 75 98 112 73 54 62 68 42 26 25 26 22 25 29 23 16 8 7 10 8 6 3
248 232 193 215 220 258 257 230 227 233 225 171 163 238 253 265 272 268 258 206 143 126 122 116 118 119 124 125 120 122 107 110 127 133 144 154 158 158 156 156 159 158 156 162 169 174 175 172 173 178 186 192 190 191 195 194 191 186 178 173 173 173 176 184 192 203 214 217 220 221 209 191 169 149 142 110 93 106 75 67 79 68 52 47 51 47 36 33 29 23 20 16 14 11 6 7 6
239 216 234 208 194 259 264 228 211 219 235 172 169 234 238 243 256 258 264 190 120 123 121 123 135 135 131 129 118 112 105 117 127 135 145 153 159 163 162 161 166 166 163 166 168 167 171 174 176 180 188 193 191 190 189 180 175 172 169 168 173 182 189 196 205 212 216 219 216 208 195 184 172 157 150 127 98 96 89 87 89 76 69 67 60 45 32 31 27 25 26 20 16 13 11 10 6
248 187 224 206 180 231 260 249 217 206 227 198 183 216 193 230 258 264 270 106 111 121 128 136 143 139 134 134 131 129 130 134 134 145 154 157 163 167 167 168 170 171 171 169 165 166 173 175 176 177 179 183 184 184 184 181 178 174 174 177 185 193 198 205 211 212 214 213 206 197 187 182 180 162 141 117 99 100 99 94 89 78 71 63 52 38 32 32 29 28 27 23 20 18 14 9 4
270 183 213 228 187 187 214 258 231 190 211 223 212 215 206 228 310 347 92 121 123 130 141 144 144 142 139 137 139 141 143 147 150 158 162 163 167 169 170 171 172 173 174 172 166 169 175 175 176 177 173 174 178 180 182 183 180 176 178 184 190 195 201 207 210 210 212 208 199 193 184 174 162 141 121 115 108 106 101 87 79 67 57 47 39 38 39 35 32 29 26 26 24 19 15 11 7
211 199 197 232 213 189 192 220 229 185 202 226 229 241 236 211 73 58 96 132 132 138 145 141 143 147 145 141 144 151 150 153 160 161 163 164 167 170 169 170 173 174 176 173 170 173 176 175 177 175 171 174 178 181 183 183 181 180 181 183 188 195 200 204 205 208 207 200 192 182 164 143 132 118 111 117 112 104 93 74 62 50 43 38 37 44 42 36 33 31 27 23 17 17 20 17 10
186 200 200 213 214 219 208 204 228 209 205 225 219 230 234 183 125 115 118 130 128 132 136 135 145 147 145 147 151 156 154 158 163 158 159 165 169 171 170 170 172 175 175 173 173 176 176 175 175 172 172 176 177 178 180 182 182 180 179 179 183 190 197 199 198 199 195 185 167 141 128 122 118 112 114 118 106 94 78 61 52 42 40 40 44 47 43 41 38 32 27 20 15 18 24 20 12
202 203 218 222 214 236 231 219 239 214 202 232 215 218 224 178 151 148 133 123 124 133 138 145 153 149 151 155 156 159 155 162 161 153 157 166 170 170 169 169 171 174 175 173 174 177 176 174 172 171 174 177 176 176 178 181 180 177 176 177 180 185 192 194 188 182 168 149 135 124 121 119 117 116 116 108 92 81 64 54 48 47 49 47 51 52 49 47 39 32 26 24 24 24 26 22 14
229 217 221 233 222 234 233 225 236 208 189 237 219 216 222 179 157 161 145 136 142 150 151 157 159 152 157 159 156 156 149 152 153 148 155 164 167 166 166 169 173 176 176 177 178 176 174 171 171 171 174 177 178 178 179 181 182 181 178 178 182 183 186 190 181 159 138 128 124 123 121 118 118 113 103 94 80 66 56 58 57 58 58 52 56 56 51 45 37 34 29 30 35 32 32 27 22
232 228 217 234 228 239 247 237 238 204 177 240 220 213 223 179 154 165 158 148 158 168 165 165 161 157 165 165 158 156 146 147 156 155 156 162 166 165 166 172 177 177 177 182 182 175 169 167 169 171 173 178 180 181 180 181 183 185 185 183 184 181 179 180 165 142 133 127 123 122 123 121 117 101 87 78 66 64 66 71 67 61 58 52 56 53 46 43 39 40 36 34 37 36 37 35 36
229 225 207 230 232 223 242 244 245 216 198 222 201 201 221 137 126 150 156 134 140 153 163 162 161 163 168 167 161 158 151 150 160 163 153 157 165 165 167 171 175 175 176 182 181 174 169 167 168 170 174 179 181 182 183 183 182 183 184 181 181 176 165 157 146 135 133 130 126 127 128 122 111 91 79 74 73 81 82 77 68 61 62 55 54 52 48 47 43 44 44 41 40 39 40 40 44
232 227 204 220 226 222 234 254 327 261 241 231 187 124 277 155 149 157 124 104 116 126 136 147 165 156 150 153 153 153 151 153 161 162 154 153 162 168 169 170 172 173 175 179 176 173 170 168 170 172 175 179 182 184 186 185 181 175 171 168 166 161 152 146 142 138 136 135 133 132 126 114 105 91 85 85 86 90 84 77 71 66 66 57 53 55 54 54 51 51 52 53 53 48 43 42 46
241 231 207 217 221 231 240 31 36 344 270 239 178 144 278 220 169 165 161 140 129 141 152 155 162 146 143 149 143 140 144 155 163 160 158 157 162 167 168 168 170 171 171 172 170 170 171 172 174 175 177 180 184 187 188 185 178 172 168 163 159 155 153 152 149 145 143 141 137 128 118 111 112 105 99 97 91 89 84 78 74 66 64 60 58 60 61 61 59 58 58 59 60 53 45 44 43
239 209 190 216 225 236 243 73 55 261 257 252 190 178 243 248 189 179 175 151 137 153 166 161 163 160 162 158 147 146 149 158 164 157 156 160 163 164 162 166 170 169 166 166 166 168 170 172 175 177 179 182 186 187 185 182 176 172 171 169 165 160 157 156 154 150 147 141 134 128 121 117 114 109 105 102 94 90 88 79 73 68 65 63 63 65 66 67 65 62 59 59 59 55 57 56 47
230 196 178 209 224 234 240 179 213 230 268 291 230 181 127 193 217 176 145 136 137 174 182 173 175 170 167 158 150 154 156 161 158 155 160 165 168 166 162 167 171 167 163 162 163 166 169 171 174 178 181 184 186 185 183 181 177 173 172 170 165 162 159 156 154 150 145 139 133 130 126 119 111 107 105 103 96 90 89 83 75 70 67 66 70 71 69 69 70 65 59 61 64 63 65 64 57
229 218 207 212 218 222 205 205 238 251 295 293 252 172 106 220 244 122 135 150 170 198 199 187 182 176 171 159 153 154 159 166 159 158 165 169 171 168 162 164 167 164 162 162 163 165 169 171 174 179 183 184 184 184 183 182 180 176 172 167 163 161 158 155 151 148 145 141 136 133 128 120 114 108 104 102 101 95 89 84 73 69 71 75 78 76 73 73 70 62 59 66 71 70 67 66 63
216 211 239 245 235 216 180 211 231 222 239 259 246 197 112 138 203 148 149 188 200 203 201 193 182 178 176 163 158 157 160 168 164 162 165 164 165 162 158 158 161 162 163 162 163 166 169 171 174 179 183 185 183 183 183 182 182 179 173 168 163 158 153 151 150 149 147 143 138 135 129 123 118 112 107 103 99 94 86 76 72 77 80 81 81 79 77 77 72 64 65 72 74 72 69 67 67
190 191 241 272 284 262 204 229 190 171 234 251 241 209 130 151 209 175 180 201 195 186 185 189 184 176 173 169 165 164 167 171 167 162 155 150 150 152 152 152 156 161 163 163 164 167 170 172 174 177 182 185 182 182 184 183 182 179 175 172 166 158 153 152 153 153 151 147 140 134 128 123 119 114 111 102 91 87 80 75 85 90 86 83 83 81 77 77 74 69 71 76 75 73 70 69 68
189 185 202 250 301 329 244 267 143 175 239 257 237 204 140 167 203 203 218 215 186 174 179 184 183 178 173 173 173 171 173 172 167 159 148 144 146 153 155 154 157 161 163 166 166 168 171 173 173 173 177 182 181 182 183 181 180 177 175 173 167 160 157 157 160 158 155 149 141 134 128 122 116 110 106 98 88 80 76 88 97 97 91 88 86 82 78 79 75 70 74 78 76 73 70 67 65
202 186 168 178 249 228 213 234 206 200 233 255 227 180 174 228 212 203 215 220 195 186 183 175 176 177 174 174 174 173 175 174 170 161 154 154 156 161 161 159 160 161 164 168 168 168 170 172 173 171 173 178 179 179 180 178 177 176 175 172 167 161 160 163 166 162 157 149 143 137 128 121 115 107 102 91 78 76 96 102 100 96 94 94 90 87 85 83 78 75 77 78 74 72 70 67 65
201 191 160 171 189 178 211 222 212 212 227 249 223 167 187 260 243 202 205 211 202 188 179 172 174 175 173 173 170 170 176 175 173 166 163 165 163 164 165 162 160 160 163 167 168 168 168 170 172 171 173 177 176 175 177 176 176 176 173 169 164 160 163 168 169 163 157 150 145 136 126 121 115 109 103 89 87 99 105 103 99 98 98 95 91 90 89 87 84 81 77 74 73 74 73 71 69
203 190 136 163 175 160 197 203 182 202 226 266 278 156 174 195 232 213 204 206 182 153 157 169 172 171 165 161 159 166 176 176 175 173 171 170 165 166 166 161 157 158 161 165 169 169 167 169 172 171 171 174 174 174 176 174 171 169 166 165 162 162 167 168 163 161 157 151 144 133 124 122 116 112 106 101 103 105 103 98 100 105 102 91 90 93 92 92 92 86 77 71 74 78 76 74 70
205 168 138 188 186 150 154 188 177 166 185 270 283 201 209 191 282 304 164 140 115 131 145 155 164 165 157 159 164 170 178 177 175 174 172 171 169 168 166 160 155 155 158 164 169 169 167 167 170 170 170 170 169 169 168 166 163 162 164 165 164 164 165 162 156 155 154 150 143 133 125 119 114 116 115 114 113 107 101 99 103 108 99 88 93 99 97 97 96 87 75 71 75 79 77 74 70
182 164 180 199 164 134 122 195 185 98 136 241 241 232 288 275 353 8 93 113 118 135 146 158 166 165 166 176 179 176 178 175 174 176 172 168 167 167 163 158 156 155 157 163 167 167 166 164 165 167 167 163 162 162 160 161 161 161 164 164 163 163 162 157 152 150 148 144 139 132 124 110 109 119 123 123 120 111 106 106 108 107 95 90 100 104 101 101 96 83 72 69 75 80 77 73 71
168 192 202 180 146 124 102 150 333 68 141 259 261 193 269 299 76 355 86 117 135 145 149 160 165 168 177 185 182 177 175 173 171 169 165 158 159 162 158 157 159 159 160 162 163 163 163 163 164 165 162 159 159 159 157 159 161 161 161 161 161 161 159 155 151 147 144 140 135 129 119 115 118 121 125 128 125 120 117 115 114 107 96 98 105 103 103 103 94 81 73 70 74 80 79 74 72
180 187 187 165 169 210 77 150 178 116 158 266 304 232 248 175 172 175 138 145 154 153 154 162 170 180 185 182 178 172 165 171 171 161 159 156 157 161 158 156 159 161 162 162 159 159 162 165 165 163 159 158 159 158 157 158 161 161 160 159 159 158 157 153 149 146 143 140 136 129 126 127 126 127 131 133 132 130 126 120 117 110 104 105 105 102 106 104 92 82 76 72 73 80 82 76 73
156 154 175 164 150 172 184 169 162 148 167 210 281 313 275 225 189 172 170 168 161 160 169 176 180 185 184 177 173 167 165 176 172 158 158 160 163 166 162 158 159 160 161 161 158 158 162 165 163 159 157 157 158 159 159 159 162 161 158 157 157 156 155 152 150 148 145 143 143 140 136 132 130 135 140 142 143 137 126 121 122 119 116 115 106 103 107 104 93 84 79 75 74 78 82 78 74
156 164 180 170 148 160 165 163 154 137 147 173 179 279 269 254 198 170 169 172 172 174 176 179 182 183 183 176 167 165 171 176 169 159 163 167 166 163 159 158 157 156 159 160 157 157 161 163 160 157 157 157 158 159 160 160 160 160 158 157 156 155 153 152 152 152 149 147 145 142 138 135 138 146 149 150 148 139 129 128 127 120 120 122 114 109 110 105 95 87 81 78 75 76 80 80 76
158 175 189 171 166 141 126 209 257 120 136 167 160 203 262 267 203 174 169 172 182 182 173 173 180 181 179 172 165 167 173 173 167 163 165 165 159 155 158 161 158 156 159 159 157 159 162 161 159 157 157 159 160 159 160 159 158 159 159 157 156 154 153 153 151 149 147 143 140 139 140 144 154 160 156 151 148 141 136 136 130 119 115 115 114 115 114 105 97 91 86 83 78 75 77 80 78
Height
782 783 782 782 780 780 781 782 801 805 806 821 814 809 800 786 786 786 783 775 772 769 761 762 766 766 769 773 772 766 768 777 781 792 796 776 771 776 776 780 782 785 789 791 794 797 799 800 801 802 804 805 807 809 810 811 811 812 813 813 814 814 815 816 817 818 818 819 820 821 822 823 823 824 824 824 824 824 824 824 824 823 823 823 823 823 823 823 823 823 822 822 822 822 822 822 822
782 783 781 782 779 782 787 786 810 816 814 825 815 807 796 784 789 789 783 778 775 768 760 762 764 764 763 762 763 767 772 773 770 773 776 771 774 777 777 779 781 785 788 791 793 796 797 799 800 802 803 805 807 808 810 811 812 813 813 813 814 815 816 817 818 818 818 820 821 822 823 823 824 824 824 824 825 825 825 825 825 824 824 824 824 824 824 824 824 824 823 823 823 823 823 822 822
782 782 781 782 780 783 788 792 812 821 823 828 816 801 792 790 790 786 777 774 774 767 764 763 763 764 763 767 766 771 777 772 768 771 774 773 771 774 778 779 781 784 787 790 793 794 796 798 800 801 803 805 806 808 810 811 812 813 813 813 814 815 816 818 818 819 819 821 822 823 824 824 825 825 825 825 825 825 825 826 826 825 825 825 825 825 825 825 825 824 824 824 824 823 823 823 823
782 782 781 782 784 788 794 803 810 817 825 824 815 798 790 790 785 781 773 769 770 768 769 767 767 763 762 771 768 769 774 770 766 766 771 773 768 768 774 778 781 784 787 790 792 794 796 799 800 801 803 805 807 808 810 811 812 813 813 814 814 815 817 818 819 819 820 821 822 824 824 825 825 825 826 825 826 826 826 826 826 826 826 826 826 826 826 826 825 825 825 825 824 824 824 823 823
782 782 782 782 790 793 798 807 808 814 818 814 810 796 786 784 780 778 772 767 766 765 767 768 772 764 761 767 767 769 769 768 766 763 766 770 770 769 771 776 780 783 787 789 792 794 796 799 800 801 803 805 807 809 810 811 812 813 814 814 815 816 818 819 820 820 820 822 823 824 824 825 825 826 826 826 826 826 826 827 827 827 827 827 827 827 826 826 826 826 826 825 825 825 824 824 823
781 782 782 782 788 790 800 811 810 811 805 800 802 792 783 778 776 776 770 767 762 761 763 767 772 769 770 767 764 766 763 763 763 762 763 767 772 772 771 774 779 783 786 789 792 794 797 800 801 802 803 806 808 809 810 811 812 813 814 814 816 817 818 820 820 821 821 822 823 824 825 825 826 826 826 826 826 827 827 827 827 827 827 827 827 827 827 827 827 827 827 826 826 825 825 824 824
781 783 784 787 790 792 806 813 808 807 798 793 794 786 781 773 771 773 772 771 763 760 762 765 765 770 778 770 766 764 759 760 758 759 761 764 771 774 773 774 778 782 787 790 793 795 798 800 802 803 804 806 808 810 810 811 813 814 814 815 816 818 819 820 820 821 822 823 823 824 825 825 826 826 826 826 827 827 827 827 828 828 828 828 828 828 828 828 828 828 828 827 827 826 826 825 825
782 785 786 793 798 800 809 810 806 804 794 788 785 780 778 771 768 771 773 774 768 762 764 766 761 772 780 770 773 767 758 762 759 761 762 765 771 775 776 775 778 783 788 791 793 797 799 801 803 804 805 807 809 810 811 812 813 814 815 816 817 818 819 820 821 822 822 823 824 825 825 825 826 826 826 826 827 827 827 828 828 828 828 828 828 829 829 829 829 829 828 828 828 827 827 826 826
782 786 789 795 803 805 808 808 805 800 792 786 782 776 773 769 766 769 771 771 767 764 766 764 759 770 778 773 776 768 762 764 763 766 765 768 772 776 779 777 779 783 789 793 795 798 800 803 804 805 806 808 809 810 811 812 814 815 816 817 818 819 820 821 821 822 823 824 824 825 825 825 826 826 826 826 826 827 827 828 828 828 828 829 829 829 829 829 829 829 829 829 829 828 828 827 827
783 786 791 798 804 810 812 809 803 797 789 783 780 774 771 768 766 766 768 769 762 764 765 759 760 768 775 778 778 770 767 765 765 771 770 772 774 778 780 780 781 783 789 794 797 799 802 805 806 807 808 809 811 811 812 813 815 815 817 818 819 820 821 822 822 823 823 824 825 825 825 825 826 826 826 826 827 827 827 828 828 829 829 829 829 829 829 830 830 830 830 830 829 829 829 828 828
788 788 789 800 807 812 813 808 801 794 786 781 778 772 767 765 766 765 764 764 758 764 765 759 767 771 773 779 777 771 769 767 767 773 775 776 778 780 781 783 785 785 789 794 798 800 803 806 807 809 809 810 811 812 813 814 815 816 818 819 820 821 821 822 823 823 824 825 825 826 826 826 826 826 827 827 827 827 827 828 828 829 829 829 829 829 830 830 830 830 830 830 830 830 829 829 829
791 790 790 803 807 806 806 804 800 793 786 783 780 769 762 762 767 766 762 762 758 764 762 757 763 765 775 782 777 772 771 771 770 774 778 778 780 782 783 785 787 788 790 793 797 801 804 806 808 810 810 811 812 814 814 815 817 817 819 820 821 822 822 823 824 824 825 825 826 826 826 826 827 827 827 827 827 827 828 828 828 829 829 829 829 830 830 830 831 831 831 831 831 830 830 830 829
789 789 792 802 800 798 800 801 796 792 789 782 777 765 758 761 764 762 759 758 757 765 759 751 754 758 776 782 776 774 773 774 773 776 779 780 782 783 785 786 788 790 791 794 797 800 804 806 808 810 811 812 813 814 815 817 818 819 820 821 822 823 823 824 824 825 825 826 826 826 827 827 827 828 828 828 828 828 828 828 828 829 829 830 830 830 831 831 831 831 831 831 831 831 831 830 830
785 785 790 797 794 793 795 797 793 794 791 777 770 762 758 760 757 753 755 756 754 756 750 745 749 759 776 781 780 778 774 775 775 777 779 782 783 784 786 787 789 791 793 795 797 800 803 806 808 809 811 812 813 815 816 817 818 820 821 822 823 824 824 825 825 826 826 827 827 827 827 827 828 828 828 828 828 828 828 829 829 829 829 830 830 830 831 831 832 831 831 831 831 831 831 831 830
781 782 786 794 793 792 791 792 790 792 788 774 766 759 758 756 750 750 750 753 753 745 744 747 747 756 771 776 778 773 771 774 774 777 779 782 783 785 787 788 790 791 793 795 798 800 802 805 807 809 810 812 814 815 816 817 819 821 822 823 824 825 825 826 826 827 827 827 827 828 828 828 828 828 828 828 829 829 829 829 829 830 830 830 830 830 831 831 831 831 831 831 831 831 830 830 830
776 779 787 793 795 795 791 786 787 791 784 769 760 757 762 755 748 751 743 742 750 745 745 752 748 750 759 761 761 763 769 773 774 777 778 781 784 785 787 788 791 792 793 795 798 800 802 804 807 809 811 812 814 815 817 818 819 821 822 824 824 826 826 827 827 827 828 828 828 828 828 828 828 828 829 829 829 829 829 830 830 830 830 830 830 830 831 831 831 831 831 831 831 830 830 830 830
774 780 790 795 794 794 788 782 784 786 776 764 759 758 765 760 748 746 737 737 748 750 748 750 747 745 750 751 753 759 768 771 773 776 778 781 783 785 788 788 790 791 793 795 798 800 802 805 807 809 811 813 815 816 817 818 820 821 823 824 825 826 826 827 828 828 828 828 829 829 829 829 829 829 829 829 829 829 830 830 830 830 831 831 831 831 831 831 831 831 831 831 831 830 830 829 829
776 783 791 794 792 787 779 776 775 773 770 763 760 759 762 761 752 744 741 745 749 753 754 751 748 747 748 750 754 760 766 771 773 774 776 780 782 783 785 787 788 790 792 795 798 801 803 805 807 810 811 813 815 816 818 819 820 821 823 824 825 826 827 828 828 828 829 829 829 829 829 829 829 829 829 829 829 830 830 830 831 831 831 831 831 831 831 831 831 831 831 831 830 830 830 829 829
776 780 787 787 782 776 769 769 767 766 766 761 760 759 758 757 751 745 749 754 752 757 762 758 755 754 754 754 758 763 766 771 773 773 775 777 778 779 781 784 788 790 793 796 800 802 804 806 808 810 811 813 815 817 818 819 821 822 823 824 825 826 827 827 828 828 828 829 829 829 829 829 829 829 829 830 829 830 830 831 831 831 831 831 831 831 831 831 831 831 831 831 830 830 830 829 829
772 775 783 779 771 769 765 765 763 762 762 761 762 759 757 753 747 746 752 756 754 757 762 762 763 761 758 758 759 764 767 771 773 773 774 774 775 776 779 784 789 793 797 799 802 806 807 809 810 812 812 814 815 817 819 820 821 822 823 824 826 826 827 827 828 828 828 829 829 829 829 829 829 829 829 829 829 830 830 831 831 831 831 831 831 831 831 831 831 831 831 831 830 830 830 829 829
769 770 776 770 765 768 763 761 760 758 759 761 762 760 759 751 746 748 751 758 758 755 753 753 758 760 760 760 760 763 766 769 771 771 771 773 776 779 783 786 791 795 799 801 804 808 810 811 812 813 814 815 816 818 819 820 822 823 824 825 826 826 827 827 828 828 828 829 829 829 829 829 829 829 829 829 829 830 830 831 830 831 831 831 831 831 831 831 831 831 831 831 830 830 829 829 828
767 764 765 763 762 765 760 757 757 756 756 759 761 761 759 750 747 749 750 757 756 748 744 745 750 753 755 758 761 764 766 767 768 768 769 773 776 780 783 787 791 795 798 799 802 806 809 812 814 815 816 817 818 818 820 821 822 824 824 825 826 826 827 827 828 828 828 829 829 829 830 830 829 829 829 829 829 830 830 830 830 830 830 830 830 830 831 830 830 830 830 830 830 829 829 828 827
768 764 760 760 760 761 758 755 755 755 757 760 760 757 754 753 752 748 748 752 746 737 737 741 745 746 749 754 760 764 765 765 764 765 768 772 775 779 784 787 791 794 798 799 801 805 808 811 814 815 817 818 819 820 820 821 822 824 825 825 826 827 827 828 828 828 829 829 829 830 830 830 830 829 829 829 830 830 830 830 830 830 830 830 830 830 830 830 830 830 829 829 829 828 828 827 827
766 765 760 758 757 757 755 753 752 754 757 757 756 755 755 757 754 748 748 745 739 736 734 737 742 745 749 754 759 761 762 764 766 770 774 778 782 785 788 790 792 795 799 802 803 805 808 810 812 814 816 818 819 820 820 821 822 823 824 826 826 827 828 828 829 829 829 829 829 830 830 830 830 830 829 829 830 829 829 829 829 829 829 830 830 830 830 830 830 829 829 829 828 828 827 827 826
763 763 759 756 755 754 752 751 750 752 754 753 754 757 756 754 751 749 747 742 737 737 737 740 744 748 752 756 759 761 763 768 773 778 782 786 789 791 793 794 796 798 801 804 806 806 807 809 811 813 815 817 818 819 820 821 822 823 824 825 826 827 829 829 829 829 829 829 829 830 830 830 830 830 830 829 830 829 829 829 829 829 829 829 829 830 830 830 829 829 829 828 828 827 826 826 825
759 759 758 756 755 752 751 750 749 751 751 751 755 757 753 748 749 751 745 740 738 738 741 744 747 752 755 758 761 763 768 774 779 783 787 790 792 794 796 798 799 800 802 805 807 808 807 808 810 812 814 816 818 819 820 822 823 824 824 825 826 827 829 829 829 829 829 829 829 830 830 830 830 829 829 829 829 829 829 829 829 829 829 829 829 829 830 829 829 829 829 828 827 826 825 824 823
753 755 756 754 753 750 749 749 748 750 750 750 754 755 751 746 749 755 746 737 739 741 745 747 749 754 758 762 768 773 778 782 784 788 792 795 796 797 798 799 800 801 803 806 809 809 808 808 809 811 814 816 818 819 820 822 823 823 824 825 826 827 828 829 829 829 829 829 830 830 830 830 830 829 829 828 828 829 829 829 829 829 829 829 829 829 829 829 829 829 828 827 827 826 825 824 823
751 753 755 753 752 750 748 748 746 748 749 746 749 751 749 747 750 752 744 737 739 744 749 750 753 758 763 769 775 779 784 786 787 791 797 800 801 800 799 797 797 799 801 804 809 810 808 806 807 810 813 816 819 820 820 821 822 822 823 824 825 826 827 828 829 829 829 830 830 829 829 829 829 829 829 828 827 828 829 829 829 829 828 828 828 829 829 829 828 828 827 827 826 825 824 823 822
750 752 758 756 753 752 748 746 744 746 748 741 745 755 755 752 750 745 741 738 739 746 751 754 759 764 769 773 776 779 780 781 783 787 794 798 799 798 798 797 796 797 796 798 804 807 807 805 805 808 812 815 818 819 820 820 820 821 822 823 824 826 827 828 828 829 829 829 829 829 829 829 828 828 828 828 827 827 828 828 828 828 828 828 828 828 828 828 828 827 827 826 826 825 824 823 822
750 750 757 759 760 757 746 744 743 745 745 737 746 766 762 752 747 742 738 737 741 750 755 758 764 768 771 772 773 776 776 776 776 778 784 789 792 794 795 796 796 797 796 794 797 801 806 808 807 808 811 814 816 819 819 820 820 821 822 823 824 825 826 828 828 829 829 829 829 829 829 828 828 827 827 827 827 826 827 827 828 827 827 827 827 827 827 827 827 826 826 825 825 824 823 822 821
751 752 755 759 767 761 744 741 744 745 743 735 747 767 763 751 745 740 737 736 741 753 758 761 766 768 770 770 773 777 777 779 778 778 782 783 786 789 792 794 795 797 797 795 795 800 806 809 808 808 810 813 816 819 821 821 822 822 823 823 824 826 826 827 828 829 829 829 829 828 828 828 827 827 827 827 826 826 826 827 827 827 827 827 827 827 827 827 826 826 825 824 824 823 823 822 821
753 760 763 759 764 760 744 738 740 744 741 735 747 764 761 752 744 738 737 739 743 754 762 764 765 766 769 771 774 778 779 781 780 779 781 780 782 786 788 790 791 793 795 795 797 801 805 806 807 808 810 813 816 819 821 822 822 822 823 823 825 826 826 827 828 828 828 828 828 828 828 827 827 826 826 826 825 825 826 826 827 826 826 826 826 826 827 826 826 825 825 824 823 823 822 821 820
757 762 767 760 761 761 750 740 735 738 740 737 745 756 756 749 743 738 739 741 747 758 765 765 765 767 768 771 773 776 779 781 780 779 778 778 779 782 785 787 789 791 793 793 794 798 801 802 805 807 809 813 816 819 821 821 821 821 822 823 824 825 826 827 828 828 828 828 828 828 827 827 827 827 827 826 825 825 825 826 826 826 826 826 826 826 826 826 826 825 824 824 823 823 822 821 820
765 762 764 759 756 758 755 745 735 734 740 740 742 748 750 747 744 742 741 742 749 759 765 765 766 767 768 770 773 775 778 779 778 778 777 777 778 780 782 785 788 790 792 792 792 794 797 800 805 807 809 812 816 819 820 821 821 820 821 822 824 825 827 827 828 828 828 828 828 828 827 827 827 827 827 826 825 824 825 826 826 826 826 826 826 826 826 826 826 825 824 823 823 822 822 820 819
769 764 762 759 753 753 754 747 737 734 741 743 745 748 747 747 747 747 747 745 749 758 762 765 766 767 769 771 773 775 777 776 776 776 776 777 778 780 781 784 787 788 790 792 792 794 797 801 805 807 809 811 815 818 819 820 820 820 820 821 823 825 826 827 827 828 828 828 828 828 827 827 828 827 826 826 825 825 825 826 826 826 826 826 826 826 826 826 825 824 824 823 823 822 821 820 818
760 758 758 758 754 753 749 743 735 732 742 746 747 750 748 750 752 752 752 749 751 759 762 765 767 768 770 772 773 775 775 775 774 775 776 777 779 780 781 783 785 787 788 790 792 795 798 801 804 806 808 810 813 816 818 819 820 819 820 821 823 824 826 827 827 828 828 828 828 828 827 827 827 826 826 826 825 825 825 826 826 826 826 826 826 826 826 825 825 824 823 823 822 821 821 819 818
752 754 756 754 753 752 745 740 734 730 742 746 744 747 746 751 755 754 754 753 756 762 764 766 766 767 770 771 773 775 775 775 774 774 775 777 779 781 783 784 786 788 789 790 792 794 797 799 802 805 807 809 811 814 816 817 818 818 819 820 822 824 825 826 827 828 828 828 828 827 827 826 826 826 826 825 824 825 825 826 826 826 826 826 826 826 826 825 824 824 823 822 822 821 821 819 817
750 753 755 754 753 750 741 737 733 730 742 745 742 746 746 749 756 756 753 754 758 760 762 765 766 767 769 770 773 774 775 775 774 774 775 778 779 782 785 787 788 789 791 792 793 793 795 797 801 803 806 809 811 813 814 816 817 817 818 819 821 823 825 826 827 828 828 828 827 827 827 827 826 826 825 824 824 825 825 826 826 826 826 826 826 826 825 825 824 824 823 822 822 822 822 821 818
751 753 756 758 752 748 742 735 732 732 741 745 743 747 747 746 754 757 753 752 756 755 753 756 760 765 767 769 771 773 774 774 773 774 776 779 781 782 783 786 789 791 793 796 796 796 796 797 800 803 806 808 811 813 814 815 816 817 818 819 821 823 825 827 828 828 828 828 827 827 828 827 827 826 825 824 824 824 825 826 826 826 827 827 826 826 825 825 824 824 823 823 823 823 823 822 820
753 753 758 759 751 750 749 740 735 734 737 739 741 746 748 750 755 756 754 752 754 756 755 755 756 759 762 765 768 769 770 771 773 774 775 779 783 784 784 785 790 793 794 796 798 799 798 798 800 802 806 808 811 813 814 815 816 817 818 819 821 824 826 828 829 829 829 828 828 828 828 827 826 825 825 825 824 824 825 826 826 827 827 827 827 826 825 825 825 825 824 824 823 823 823 823 821
752 750 754 755 750 748 747 741 737 735 735 733 740 754 756 755 757 755 756 756 756 758 760 761 760 760 762 765 767 767 767 768 770 772 774 778 782 783 784 785 789 791 793 795 796 797 798 799 801 803 805 808 810 812 813 814 814 815 817 819 822 824 827 828 828 829 829 828 828 828 828 827 826 825 825 824 824 825 825 826 827 828 828 828 827 826 826 826 826 825 825 825 824 824 824 824 822
753 747 746 747 746 744 742 742 742 747 748 734 739 765 768 756 755 757 757 758 760 762 761 762 762 762 763 766 768 768 768 768 767 769 770 774 779 781 782 784 787 789 791 793 795 796 798 799 801 803 805 807 809 811 812 813 813 814 815 817 820 823 826 827 827 827 828 828 828 828 827 826 825 825 825 825 825 825 826 827 828 829 828 828 827 827 827 827 827 826 826 826 826 826 825 824 823
755 742 736 740 742 742 743 744 748 756 755 735 733 757 769 764 760 758 758 759 763 765 763 763 762 762 763 764 766 767 767 768 767 768 769 772 775 777 779 782 784 787 788 791 793 795 796 798 800 803 805 807 808 810 811 812 813 813 815 817 819 822 824 826 827 827 827 827 828 828 827 826 825 825 825 825 826 826 827 828 829 829 829 828 828 828 828 828 828 827 827 827 826 826 825 824 824
749 733 730 737 739 742 743 745 749 750 747 738 733 742 760 769 763 757 760 764 767 767 765 765 763 762 763 763 765 765 765 766 766 768 770 771 772 773 776 779 783 785 787 789 791 793 795 796 799 802 804 806 807 809 811 811 812 813 815 818 820 822 824 825 826 827 827 828 828 828 827 825 825 825 825 826 827 828 829 829 830 829 829 828 828 829 829 829 829 829 828 828 827 827 826 825 824
738 727 730 733 734 739 740 742 747 746 749 752 741 737 755 771 765 758 762 766 769 768 764 764 763 762 762 762 764 764 764 764 763 765 768 770 772 772 774 778 781 784 785 787 789 791 794 796 799 802 804 805 807 808 810 810 811 813 815 818 821 823 824 825 826 827 828 828 828 828 826 825 825 825 826 827 828 829 829 830 830 829 829 829 829 830 830 830 830 830 830 829 828 827 826 825 825
729 725 729 729 731 736 737 742 746 747 757 759 744 737 752 773 771 763 767 768 766 764 762 761 761 760 761 761 762 762 762 763 762 763 765 769 773 775 777 779 782 784 785 786 789 791 794 796 799 801 803 805 806 808 809 810 811 812 815 818 820 823 825 825 826 828 828 828 828 828 826 825 825 826 827 828 829 829 829 830 830 830 830 830 830 831 831 831 831 831 831 830 829 828 827 826 826
724 727 732 733 734 736 737 741 743 754 763 753 739 735 744 766 773 763 758 752 747 754 760 760 759 759 759 759 760 760 760 761 762 763 766 770 774 777 778 780 782 784 786 787 789 791 793 796 799 801 803 804 806 807 809 810 811 813 815 818 820 822 824 825 826 827 828 828 828 827 826 826 826 827 828 828 829 829 829 830 830 831 831 831 831 832 832 832 832 833 832 831 830 829 828 827 826
724 728 735 743 745 742 745 746 747 763 766 744 730 731 737 755 766 758 744 732 732 742 750 753 754 754 756 756 757 758 758 759 761 763 766 769 772 775 777 778 781 783 785 787 788 790 793 795 798 801 803 804 805 807 809 810 811 813 815 818 820 822 823 825 826 827 827 827 827 827 826 826 826 827 828 828 829 829 830 831 831 831 832 832 832 832 833 833 833 833 833 831 830 829 829 828 827
727 731 739 753 758 756 759 758 756 761 756 736 726 731 738 742 743 741 735 729 730 732 733 739 745 748 751 753 754 756 756 758 760 762 765 766 768 771 773 775 778 780 783 785 787 789 792 794 797 800 802 804 805 807 809 810 811 813 816 818 820 822 823 825 825 826 827 827 827 826 825 825 826 827 828 829 829 830 831 832 832 832 833 833 833 833 834 834 834 834 833 832 831 830 830 829 828
730 734 740 754 761 765 769 766 761 758 747 732 726 732 741 737 725 725 725 720 721 724 728 733 736 741 746 749 752 755 756 757 759 761 763 764 766 768 771 773 775 777 780 784 787 789 792 794 797 799 801 803 805 806 808 810 812 814 816 819 820 821 823 824 825 825 825 826 826 826 825 825 827 828 829 830 831 832 832 833 833 833 834 834 834 834 835 835 835 834 833 832 831 831 831 830 829
726 726 732 743 748 753 761 759 756 755 744 732 730 735 740 732 720 715 711 710 715 723 730 736 738 741 745 750 754 755 757 757 759 761 763 764 765 766 769 771 772 775 778 782 786 789 792 794 797 799 800 802 804 806 808 810 812 815 817 819 820 821 822 823 824 824 824 825 826 825 825 826 828 829 830 831 832 833 834 834 834 834 835 835 835 835 836 836 836 835 834 833 832 832 832 831 831
722 719 726 735 733 733 744 748 744 743 742 737 734 732 726 719 715 712 709 713 722 728 732 739 744 747 749 752 755 755 755 755 758 761 763 764 765 766 768 769 771 774 777 782 786 788 791 794 796 798 800 802 803 805 808 810 813 815 818 819 820 820 822 822 823 823 824 825 825 825 826 827 829 830 831 833 834 835 835 835 835 835 836 836 836 836 837 837 836 835 834 834 833 833 833 832 832
718 722 726 723 718 720 734 747 743 738 744 746 738 730 721 716 719 719 718 723 730 733 736 741 744 747 751 752 753 753 753 754 756 759 761 763 766 768 769 769 771 774 777 782 785 788 791 793 796 798 800 802 804 806 808 810 813 815 818 819 819 820 821 822 822 823 824 824 825 825 826 828 829 831 832 834 835 836 836 836 836 837 837 837 837 837 837 837 836 835 835 834 834 834 834 834 834
712 723 720 712 716 720 727 742 747 747 751 747 738 733 727 725 731 732 730 734 737 736 738 742 745 747 749 750 751 752 752 754 756 758 761 763 766 769 769 770 772 774 777 782 785 788 791 793 796 798 800 801 803 805 808 810 813 815 817 818 819 820 821 821 822 822 823 824 825 826 827 829 830 831 833 834 836 836 837 837 837 837 838 838 838 838 838 837 836 836 835 835 836 836 835 835 835
702 709 706 711 726 732 732 740 748 753 757 749 740 739 732 727 734 738 738 739 739 738 740 742 745 745 746 747 749 751 754 756 756 758 761 763 765 767 768 770 772 775 779 782 785 787 790 794 796 798 800 802 803 805 807 810 813 815 817 818 819 820 820 821 822 822 823 823 825 826 827 829 830 832 834 835 836 837 837 837 838 838 838 839 839 839 838 837 836 836 837 837 837 837 837 837 837
697 700 703 708 717 724 728 735 739 745 754 752 745 744 732 719 723 730 733 735 735 736 737 737 738 739 740 743 746 750 753 755 755 757 760 761 763 765 767 769 772 776 780 782 785 787 790 794 797 798 801 802 803 805 806 809 812 814 816 818 819 820 820 821 822 822 823 823 825 827 828 830 831 832 834 835 836 837 837 838 838 839 839 839 839 839 838 838 837 838 838 838 839 839 838 838 838
704 708 712 711 711 716 721 728 729 731 744 750 749 748 731 711 712 719 722 727 728 726 727 730 733 735 737 740 744 749 752 753 754 756 757 758 761 764 768 771 774 777 780 782 784 787 790 794 796 797 800 801 803 804 806 808 811 814 815 817 818 819 820 821 821 822 823 824 825 827 828 830 831 832 834 835 836 837 838 838 839 839 839 839 839 839 838 838 838 839 839 840 841 841 840 840 839
703 707 711 712 712 717 727 735 728 722 731 737 741 747 728 706 707 710 711 719 721 718 720 725 730 732 735 739 742 746 749 750 752 753 756 758 761 765 768 770 773 776 779 782 783 787 790 793 795 796 799 801 802 804 806 808 811 813 815 816 818 819 820 821 821 822 823 825 826 827 829 830 831 832 833 834 836 837 838 839 839 840 839 839 839 839 839 839 839 840 841 842 843 842 841 841 840